CW3175 Weather Reports


time (UTC)temp
F
wind
direction
speed
knots
gust
knots
rain 1hr
in
rain 24hr
in
rain mn
in
humidity
%
barometer
mb
20150802162219 89 219 2.6 13.0 0.00 0.00 0.00 39 1006.0
20150802160719 89 254 4.3 14.8 0.00 0.00 0.00 41 1006.1
20150802155213 89 223 1.7 12.2 0.00 0.00 0.00 40 1006.2
20150802153713 88 252 2.6 15.6 0.00 0.00 0.00 39 1006.4
20150802152210 87 279 4.3 13.9 0.00 0.00 0.00 43 1006.6
20150802150708 86 124 3.5 12.2 0.00 0.00 0.00 43 1006.7
20150802145207 85 244 4.3 13.9 0.00 0.00 0.00 48 1006.9
20150802143706 84 257 2.6 14.8 0.00 0.00 0.00 50 1007.1
20150802142203 83 227 2.6 11.3 0.00 0.00 0.00 53 1007.2
20150802140705 82 187 1.7 11.3 0.00 0.00 0.00 56 1007.4
20150802135202 81 161 2.6 13.9 0.00 0.00 0.00 59 1007.7
20150802133656 80 146 0.9 8.7 0.00 0.00 0.00 61 1007.8
20150802132153 79 69 0.9 10.4 0.00 0.00 0.00 66 1007.7
20150802130655 78 231 0.9 8.7 0.00 0.00 0.00 72 1007.7
20150802125130 77 254 1.7 11.3 0.00 0.00 0.00 75 1007.8
20150802123629 75 202 0.0 5.2 0.00 0.00 0.00 80 1007.8
20150802122110 74 210 0.9 6.1 0.00 0.00 0.00 83 1007.8
20150802120609 73 232 0.9 5.2 0.00 0.00 0.00 85 1007.9
20150802115054 73 215 1.7 7.8 0.00 0.00 0.00 85 1007.9
20150802113552 73 190 0.9 5.2 0.00 0.00 0.00 85 1008.0
20150802112006 73 238 0.9 5.2 0.00 0.00 0.00 85 1008.0
20150802110506 73 225 0.0 6.1 0.00 0.00 0.00 84 1008.2
20150802104950 73 222 0.0 4.3 0.00 0.00 0.00 83 1008.2
20150802103438 74 43 0.0 4.3 0.00 0.00 0.00 83 1008.2
20150802101936 74 300 0.9 5.2 0.00 0.00 0.00 82 1008.1
20150802100434 74 203 0.0 4.3 0.00 0.00 0.00 82 1008.2
20150802094934 74 252 0.0 5.2 0.00 0.00 0.00 81 1008.3
20150802093433 74 223 0.9 5.2 0.00 0.00 0.00 80 1008.0
20150802091934 74 236 0.0 3.5 0.00 0.00 0.00 79 1008.2
20150802090432 75 290 0.0 6.1 0.00 0.00 0.00 78 1008.3
20150802084931 75 253 0.9 7.0 0.00 0.00 0.00 77 1008.3
20150802083431 75 204 0.9 7.0 0.00 0.00 0.00 76 1008.3
20150802081931 76 213 0.0 5.2 0.00 0.00 0.00 74 1008.3
20150802080428 76 161 0.9 8.7 0.00 0.00 0.00 73 1008.4
20150802074925 76 261 0.0 6.1 0.00 0.00 0.00 71 1008.6
20150802073425 76 257 0.9 7.8 0.00 0.00 0.00 70 1008.7
20150802071921 76 221 0.9 4.3 0.00 0.00 0.00 69 1008.7
20150802070419 76 221 0.0 6.1 0.00 0.00 0.00 68 1008.7
20150802064913 76 235 0.0 4.3 0.00 0.00 0.00 67 1008.6
20150802063405 77 267 0.0 4.3 0.00 0.00 0.00 67 1008.7
20150802061849 77 215 0.0 1.7 0.00 0.00 0.00 66 1008.8
20150802060339 77 199 0.0 6.1 0.00 0.00 0.00 65 1008.8
20150802054838 77 290 0.0 2.6 0.00 0.00 0.00 64 1009.0
20150802053335 78 190 0.0 6.1 0.00 0.00 0.00 63 1009.1
20150802051835 78 238 0.0 7.8 0.00 0.00 0.00 62 1009.0
20150802050332 78 233 0.9 5.2 0.00 0.00 0.00 62 1009.1
20150802044833 78 206 0.0 6.1 0.00 0.00 0.00 60 1009.0
20150802043320 79 193 0.0 5.2 0.00 0.00 0.00 59 1009.1
20150802041814 79 208 0.0 3.5 0.00 0.00 0.00 59 1009.0
20150802040306 79 259 0.0 2.6 0.00 0.00 0.00 58 1009.0
20150802034756 79 242 0.0 3.5 0.00 0.00 0.00 57 1009.2
20150802033234 79 269 0.0 5.2 0.00 0.00 0.00 56 1009.3
20150802031722 80 256 0.9 7.8 0.00 0.00 0.00 55 1009.3
20150802030216 80 254 0.0 8.7 0.00 0.00 0.00 54 1009.3
20150802024716 81 281 0.0 7.0 0.00 0.00 0.00 53 1009.3
20150802023151 81 254 0.0 6.1 0.00 0.00 0.00 52 1009.3
20150802021652 81 281 0.9 8.7 0.00 0.00 0.00 51 1009.3
20150802020152 82 205 0.9 6.1 0.00 0.00 0.00 50 1009.2
20150802014650 82 266 0.0 6.1 0.00 0.00 0.00 49 1009.2
20150802013128 82 138 0.9 5.2 0.00 0.00 0.00 48 1009.1
20150802011629 82 195 0.9 9.6 0.00 0.00 0.00 48 1009.0
20150802010115 83 288 0.9 6.1 0.00 0.00 0.00 47 1009.0
20150802004614 84 263 1.7 12.2 0.00 0.00 0.00 45 1009.0
20150802003058 84 297 1.7 9.6 0.00 0.00 0.00 43 1008.9
20150802001600 85 297 1.7 8.7 0.00 0.00 0.00 42 1008.9
20150802000056 85 246 1.7 13.0 0.00 0.00 0.00 41 1008.8
20150801234552 86 292 1.7 10.4 0.00 0.00 0.00 40 1008.9
20150801233049 86 232 1.7 10.4 0.00 0.00 0.00 38 1008.9
20150801231548 86 250 1.7 12.2 0.00 0.00 0.00 38 1009.1
20150801230032 86 208 1.7 14.8 0.00 0.00 0.00 37 1009.3
20150801224534 87 273 2.6 14.8 0.00 0.00 0.00 35 1009.5
20150801223031 88 304 2.6 9.6 0.00 0.00 0.00 34 1009.5
20150801221528 88 77 1.7 8.7 0.00 0.00 0.00 33 1009.6
20150801220026 88 265 2.6 12.2 0.00 0.00 0.00 32 1009.7
20150801214526 88 283 4.3 19.1 0.00 0.00 0.00 31 1009.8
20150801213027 88 278 2.6 16.5 0.00 0.00 0.00 31 1010.0
20150801211528 89 207 1.7 11.3 0.00 0.00 0.00 29 1009.9
20150801210018 89 300 1.7 14.8 0.00 0.00 0.00 30 1009.9
20150801204518 89 229 1.7 16.5 0.00 0.00 0.00 29 1010.0
20150801203014 90 309 0.9 10.4 0.00 0.00 0.00 28 1010.0
20150801201512 89 337 3.5 10.4 0.00 0.00 0.00 27 1010.1
20150801200011 89 263 1.7 13.0 0.00 0.00 0.00 28 1010.3
20150801194505 88 156 1.7 9.6 0.00 0.00 0.00 29 1010.5
20150801193005 88 194 0.9 11.3 0.00 0.00 0.00 30 1010.6
20150801191502 88 223 1.7 10.4 0.00 0.00 0.00 30 1010.6
20150801190003 88 0 2.6 10.4 0.00 0.00 0.00 29 1010.9
20150801182942 88 326 2.6 11.3 0.00 0.00 0.00 28 1011.2
20150801181443 87 343 1.7 10.4 0.00 0.00 0.00 31 1011.5
20150801175941 87 0 2.6 13.9 0.00 0.00 0.00 31 1011.6
20150801174441 86 172 1.7 11.3 0.00 0.00 0.00 31 1011.9
20150801172940 87 225 0.9 8.7 0.00 0.00 0.00 30 1011.8
20150801171439 85 239 0.9 9.6 0.00 0.00 0.00 30 1012.0
20150801165933 85 342 2.6 13.0 0.00 0.00 0.00 29 1012.2
20150801164434 85 300 2.6 10.4 0.00 0.00 0.00 29 1012.2
20150801162935 86 254 0.9 11.3 0.00 0.00 0.00 30 1012.4